Regional Weather Roundup
Issued by NWS

Home | Current Version | Previous Version | Graphics & Text | Print | Product List | Glossary On
Versions: 1 2 3 4 5 6 7 8 9 10 11 12 13 14 15 16 17 18 19 20 21 22 23 24 25 26 27
000
ASUS45 KCYS 270010
RWRWY

WYOMING REGIONAL WEATHER ROUNDUP
NATIONAL WEATHER SERVICE CHEYENNE WY
600 PM MDT SUN MAR 26 2017

NOTE:  "FAIR" INDICATES FEW OR NO CLOUDS BELOW 12,000 FEET
WITH NO SIGNIFICANT WEATHER AND/OR OBSTRUCTIONS TO VISIBILITY.

WYZ001-270100-
YELLOWSTONE NATIONAL PARK

CITY           SKY/WX    TMP DP  RH WIND       PRES   REMARKS
LK YELLOWSTONE   N/A     34  21  59 VRB7      29.96R WCI  28
6HR MIN TEMP:  34; 6HR MAX TEMP:  39;

W YELLOWSTONE  NOT AVBL

$$
WYZ002>013-054>058-071-098>099-270100-
NORTHERN WYOMING

CITY           SKY/WX    TMP DP  RH WIND       PRES   REMARKS
JACKSON        FAIR      41  19  42 S13       29.95S
CODY           FAIR      54  20  26 SE7       29.83F
GREYBULL       FAIR      56  25  30 SE8       29.84S
6HR MIN TEMP:  49; 6HR MAX TEMP:  57;

WORLAND        FAIR      55  24  30 S6        29.84F
6HR MIN TEMP:  50; 6HR MAX TEMP:  56;

SHERIDAN       FAIR      56  22  26 VRB5      29.86S
6HR MIN TEMP:  51; 6HR MAX TEMP:  58;

BUFFALO        FAIR      52  28  39 E7        29.89S
6HR MIN TEMP:  50; 6HR MAX TEMP:  55;

GILLETTE       FAIR      53  29  39 NE3       29.88F
6HR MIN TEMP:  46; 6HR MAX TEMP:  54;

HULETT         CLOUDY    50  34  53 E6        29.91F
NEWCASTLE      FAIR      48  34  57 NE13G21   29.91S

$$
WYZ014>020-022>026-101>103-270100-
CENTRAL WYOMING

CITY           SKY/WX    TMP DP  RH WIND       PRES   REMARKS
BIG PINEY      FAIR      42  20  41 S3        29.96S
6HR MIN TEMP:  38; 6HR MAX TEMP:  44;

PINEDALE       FAIR      37  19  48 N7        29.97F WCI  32
DUBOIS         FAIR      41  14  33 W18       29.90R
LANDER         FAIR      53  21  28 NW5       29.83F
6HR MIN TEMP:  47; 6HR MAX TEMP:  54;

RIVERTON       FAIR      52  20  28 SE8       29.85F
6HR MIN TEMP:  46; 6HR MAX TEMP:  53;

CASPER         FAIR      50  32  50 S7        29.89F
6HR MIN TEMP:  41; 6HR MAX TEMP:  51; 6HR PCP:  0.01;

DOUGLAS        FAIR      51  30  44 NW3       29.91F
6HR MIN TEMP:  42; 6HR MAX TEMP:  53;


$$
WYZ021-027>030-104>119-270100-
SOUTHERN WYOMING

CITY           SKY/WX    TMP DP  RH WIND       PRES   REMARKS
EVANSTON       FAIR      42  22  44 W17       29.98S
6HR MIN TEMP:  38; 6HR MAX TEMP:  43;

KEMMERER         N/A     37  25  60 NW9       29.98S WCI  31
FORT BRIDGER   FAIR      44  23  43 W10       30.00S
ROCK SPRINGS   FAIR      46  22  38 W8        29.95F
6HR MIN TEMP:  41; 6HR MAX TEMP:  48;

DIXON            N/A     50  20  30 W6        29.98S
RAWLINS        FAIR      47  20  34 W10       29.94S
6HR MIN TEMP:  39; 6HR MAX TEMP:  50; 6HR PCP:  0.01;

SARATOGA       FAIR      46  23  39 W7        29.96S
LARAMIE        CLOUDY    40  31  70 N13       29.94R WCI  32
6HR MIN TEMP:  39; 6HR MAX TEMP:  46; 6HR PCP: TRACE;

CHEYENNE       PTSUNNY   44  33  65 N10       29.94R
6HR MIN TEMP:  38; 6HR MAX TEMP:  46; 6HR PCP: TRACE;

TORRINGTON     CLOUDY    49  35  58 N10       29.92S
6HR MIN TEMP:  45; 6HR MAX TEMP:  50; 6HR PCP: TRACE;

PINE BLUFFS    FAIR      45  36  70 N14G21    29.94S

$$




USA.gov is the U.S. government's official web portal to all federal, state and local government web resources and services.